Regional Weather Roundup
Issued by NWS

Home | Current Version | Previous Version | Text Only | Print | Product List | Glossary On
Versions: 1 2 3 4 5 6 7 8 9 10 11 12 13 14 15 16 17 18 19 20 21 22 23 24 25 26 27
000
ASUS45 KSLC 221510
RWRUT

UTAH REGIONAL WEATHER ROUNDUP
NATIONAL WEATHER SERVICE SALT LAKE CITY UT
900 AM MDT FRI SEP 22 2017

UTZ001>011-023>025-221600-

NORTHERN UTAH

CITY           SKY/WX    TMP DP  RH WIND       PRES   REMARKS
BRIGHAM CITY   CLOUDY    42  40  90 CALM      29.91R
HILL AFB       CLOUDY    41  40  96 SE7       29.89R FOG
LOGAN          CLOUDY    43  38  82 NW3       29.88R
OGDEN          CLOUDY    43  40  89 S5        29.88R
SALT LAKE CITY LGT RAIN  46  41  82 N3        29.88R
TOOELE VALLEY  CLOUDY    43  37  81 CALM      29.89R
WENDOVER       MOSUNNY   42  36  79 N7        29.90S
HEBER CITY     CLOUDY    41  36  81 E3        29.86R
WEST JORDAN    CLOUDY    43  43 100 CALM      29.89R

$$

UTZ011>015-024>027-221600-

CENTRAL/NORTHEAST UTAH

CITY           SKY/WX    TMP DP  RH WIND       PRES   REMARKS
PROVO AIRPORT  CLOUDY    45  40  82 S5        29.89R
MOAB/CANYONLAN MOSUNNY   66  32  28 W10       29.76R
DELTA          CLOUDY    39  37  93 E5        29.89S
PRICE          MOSUNNY   54  36  50 CALM      29.81S
RICHFIELD      SUNNY     45  43  93 E2        29.88S
ROOSEVELT      SUNNY     59  32  36 W17       29.82S
VERNAL         SUNNY     53  47  79 CALM      29.81R

$$

UTZ013>016-019>022-027-221600-

SOUTHERN UTAH

CITY           SKY/WX    TMP DP  RH WIND       PRES   REMARKS
BRYCE CANYON   PTSUNNY   45  36  70 SE7       29.90R
CEDAR CITY     CLOUDY    39  39 100 CALM      29.86R FOG
MILFORD        FOG       39  38  96 VRB6      29.87R VSB 1/4 WCI  35
ST GEORGE      MOSUNNY   57  39  51 CALM      29.81S
HANKSVILLE     SUNNY     64  34  32 SW20      29.80S
KANAB          SUNNY     54  36  50 CALM      29.88S
BLANDING         N/A     60  32  34 S10       29.97S

$$

REGIONAL REPORTS     COLORADO/ARIZONA

CITY           SKY/WX    TMP DP  RH WIND       PRES   REMARKS
CRAIG, CO      CLOUDY    53  35  50 CALM      29.90R
GRAND JUNCTION MOSUNNY   69  33  26 S12       29.80R
RIFLE, CO      LGT RAIN  60  44  55 S21       29.86R
MONTROSE, CO   CLOUDY    64  39  39 SE9       29.90R
CORTEZ, CO     CLOUDY    65  37  35 S13G31    29.93R
PAGE, AZ       PTSUNNY   61  39  44 N6        29.79S
GRAND CANYON   MOSUNNY   53  40  61 SW12      29.92S
KINGMAN, AZ    SUNNY     57  31  37 CALM      29.84R
FLAGSTAFF, AZ  CLOUDY    50  42  74 SW17G23   29.96R

$$

REGIONAL REPORTS    NEVADA/IDAHO/WYOMING

CITY           SKY/WX    TMP DP  RH WIND       PRES   REMARKS
LAS VEGAS, NV  SUNNY     61  28  28 VRB3      29.82R
ELY, NY        CLOUDY    28  27  96 S8        29.89R WCI  20
ELKO, NV       CLOUDY    39  35  86 SW3       29.90S
POCATELLO, ID  CLOUDY    40  38  93 SW14      29.90R WCI  32
BURLEY, ID     CLOUDY    40  36  86 SW9       29.89R WCI  34
FORT BRIDGER,  PTSUNNY   41  41  98 SE14      29.90R
EVANSTON, WY   CLOUDY    36  36 100 SW8       29.88R WCI  30
ROCK SPRINGS,  CLOUDY    39  37  92 N9        29.89R WCI  33
KEMMERER, WY     N/A     37  36  93 W3        29.88R

$$




USA.gov is the U.S. government's official web portal to all federal, state and local government web resources and services.